Flag for France Weather past 2 weeks in Aix-en-Provence, France

Now
73 °F

Sunny.


Feels Like: 76 °F
Forecast: 55 / 77 °F
Wind: 26 mph from Northwest

Location: Marseille / Marignane

Current Time: Sep 5, 2015 at 5:28:14 PM

Latest Report: Sep 5, 2015 at 5:00 PM


Visibility: 10 mi

Pressure: 30.01 "Hg

Humidity: 29%

Dew point: 39 °F

Location of Aix-en-ProvenceLocation

Historic Weather in Aix-en-Provence — Graph

°F

Aix-en-Provence temperature yesterday

Maximum temperature yesterday: 75 °F (at 3:30 PM)
Minimum temperature yesterday: 61 °F (at 7:00 AM)
Average temperature yesterday: 69 °F

Past Weeks' High & Low Weather Summary

 TemperatureHumidityPressure
High90 °F (Aug 21, 4:30 PM)100% (Aug 23, 6:30 PM)30.18 "Hg (Aug 23, 6:30 PM)
Low61 °F (Aug 26, 3:00 AM)24% (Aug 21, 4:00 PM)29.71 "Hg (Aug 23, 5:30 PM)
Average74 °F59%29.98 "Hg
* Reported Aug 21 4:00 PM — Sep 5 4:00 PM, Aix-en-Provence, Weather by CustomWeather, © 2015

Note: Actual official high and low records may vary slightly from our data, if they occured in-between our weather recording intervals... More about our weather records

Advertising

Aix-en-Provence weather history for previous 24 hours

 ConditionsComfort  
Time TempWeatherWind HumidityBarometerVisibility
4:00 PM
Sat, Sep 5
73 °FSunny.28 mph29%30.01 "Hg10 mi
3:30 PM73 °FSunny.25 mph27%30.01 "Hg10 mi
3:00 PM73 °FSunny.23 mph31%30.01 "Hg10 mi
2:30 PM73 °FPassing clouds.22 mph31%30.01 "HgN/A
2:00 PM73 °FSunny.28 mph31%30.01 "Hg10 mi
1:30 PM73 °FSunny.28 mph29%30.01 "Hg10 mi
1:00 PM72 °FSunny.30 mph31%30.01 "Hg10 mi
12:30 PM72 °FSunny.25 mph33%30.01 "Hg10 mi
12:00 PM72 °FSunny.26 mph33%30.01 "Hg10 mi
11:30 AM70 °FSunny.24 mph38%30.01 "Hg10 mi
11:00 AM70 °FSunny.24 mph38%30.01 "Hg10 mi
10:30 AM68 °FSunny.25 mph38%30.01 "Hg10 mi
10:00 AM66 °FSunny.23 mph40%30.01 "Hg10 mi
9:30 AM64 °FSunny.22 mph46%30.01 "Hg10 mi
9:00 AM64 °FSunny.23 mph46%29.98 "Hg10 mi
8:30 AM63 °FSunny.22 mph52%29.98 "Hg10 mi
8:00 AM63 °FClear.18 mph52%29.98 "Hg10 mi
7:30 AM61 °FClear.14 mph55%29.98 "Hg10 mi
7:00 AM61 °FClear.14 mph55%29.95 "Hg10 mi
6:30 AM61 °FClear.10 mph55%29.95 "Hg10 mi
6:00 AM63 °FPassing clouds.9 mph49%29.95 "HgN/A
5:30 AM63 °FClear.10 mph49%29.92 "Hg10 mi
5:00 AM63 °FClear.13 mph52%29.92 "Hg10 mi
4:30 AM64 °FClear.12 mph49%29.92 "Hg10 mi
4:00 AM64 °FClear.13 mph49%29.92 "Hg10 mi
3:30 AM64 °FClear.14 mph49%29.92 "Hg10 mi
3:00 AM66 °FClear.15 mph46%29.92 "Hg10 mi
2:30 AM68 °FClear.12 mph43%29.92 "Hg10 mi
2:00 AM68 °FClear.10 mph46%29.92 "Hg10 mi
1:30 AM66 °FClear.8 mph49%29.92 "Hg10 mi
1:00 AM68 °FClear.8 mph49%29.92 "Hg10 mi
12:30 AM68 °FClear.10 mph56%29.92 "Hg10 mi
12:00 AM68 °FClear.13 mph64%29.92 "Hg10 mi
11:30 PM
Fri, Sep 4
68 °FClear.10 mph73%29.92 "Hg10 mi
11:00 PM70 °FClear.9 mph69%29.92 "Hg10 mi
10:30 PM72 °FClear.16 mph57%29.92 "Hg10 mi
10:00 PM72 °FClear.14 mph53%29.92 "Hg10 mi
9:30 PM72 °FClear.13 mph61%29.92 "Hg10 mi
9:00 PM70 °FSunny.16 mph64%29.92 "Hg10 mi
8:30 PM72 °FSunny.13 mph53%29.89 "Hg10 mi
8:00 PM72 °FSunny.12 mph57%29.89 "Hg10 mi
7:30 PM72 °FSunny.14 mph57%29.89 "Hg10 mi
7:00 PM72 °FSunny.15 mph53%29.89 "Hg10 mi
6:30 PM72 °FSunny.15 mph53%29.92 "Hg10 mi
6:00 PM73 °FSunny.15 mph53%29.92 "Hg10 mi
5:30 PM73 °FSunny.5 mph44%29.92 "Hg10 mi
5:00 PM73 °FSunny.9 mph44%29.92 "Hg10 mi
Weather by CustomWeather, © 2015

See weather overviewHow to use our weather pages